Location: ?p Dangia
(12.0167°N, 108.4333°E)
Time: 01:19:40
(UTC+00:00)

Daily predictions for brighter satellites

Satellite Brightness Start Highest point End
(mag) Time Altitude Azimuth Time Altitude Azimuth Time Altitude Azimuth
Cosmos 1733 Rocket 3.5 11:27:33 10° N 11:31:48 67° W 11:36:04 10° S
Palapa 6 Rocket 4.0 11:29:40 10° SSW 11:32:46 23° SSE 11:36:10 10° E
TELKOM 3 3.1 11:32:20 10° NW 11:34:22 56° SW 11:36:35 10° SSE
STARLINK-1352 4.5 11:31:48 10° S 11:35:10 26° ESE 11:38:31 10° ENE
Cosmos 2297 3.8 11:30:39 10° S 11:36:10 59° ESE 11:41:43 10° NNE
Okean-O 3.1 11:33:33 10° S 11:37:55 63° WSW 11:42:18 10° NNW
Cosmos 304 Rocket 4.0 11:35:52 10° S 11:40:25 46° ESE 11:44:57 10° NNE
STARLINK-1368 4.3 11:37:13 10° S 11:40:47 31° ESE 11:44:20 10° ENE
Cosmos 2369 Rocket 3.7 11:38:22 10° SE 11:41:14 14° ESE 11:44:04 10° ENE
Meteor 2-4 Rocket 3.8 11:37:45 10° SSE 11:42:55 48° E 11:48:02 10° NNE
Cosmos 1536 4.3 11:41:20 10° NNW 11:45:08 40° W 11:48:56 10° SSW
STARLINK-1369 4.1 11:41:35 10° S 11:45:17 35° ESE 11:48:57 10° ENE
CZ-4 R/B 1.8 11:43:40 10° S 11:47:51 68° W 11:52:02 10° NNW
STARLINK-1320 2.7 11:46:34 10° SSW 11:49:39 72° SE 11:52:44 10° NE
Cosmos 1190 Rocket 4.5 11:44:44 10° N 11:49:41 42° ENE 11:54:39 10° SSE
STARLINK-1322 2.7 11:46:56 10° SSW 11:50:01 73° SE 11:53:05 10° NE
STARLINK-1069 4.4 11:46:14 10° NNW 11:50:02 36° NE 11:53:04 15° ESE
STARLINK-1324 2.7 11:47:15 10° SSW 11:50:20 74° SE 11:53:25 10° NE
STARLINK-1294 2.7 11:47:36 10° SSW 11:50:39 75° SE 11:53:43 10° NE
STARLINK-1261 2.7 11:47:56 10° SSW 11:51:01 76° SE 11:54:06 10° NE
STARLINK-1325 2.7 11:48:17 10° SSW 11:51:22 77° SE 11:54:27 10° NE
STARLINK-1333 2.7 11:48:37 10° SSW 11:51:43 78° SE 11:54:48 10° NE
Ariane Rocket 4.5 11:48:58 12° ESE 11:51:56 19° ENE 11:55:26 10° NNE
STARLINK-1334 2.7 11:48:55 10° SSW 11:52:00 79° SE 11:55:06 10° NE
STARLINK-1326 2.7 11:49:14 10° SSW 11:52:20 80° ESE 11:55:25 10° NE
STARLINK-1323 2.7 11:49:38 10° SSW 11:52:44 82° ESE 11:55:49 10° NE
GPS 2-14 Rocket1 4.2 11:49:01 10° W 11:52:51 36° N 11:56:42 10° ENE
STARLINK-1349 2.7 11:49:56 10° SSW 11:53:02 83° SE 11:56:08 10° NE
GPS 2-12 Rocket1 4.1 11:48:59 10° WNW 11:53:12 38° N 11:57:22 10° ENE
STARLINK-1336 2.7 11:50:15 10° SSW 11:53:20 84° ESE 11:56:25 10° NE
STARLINK-1331 2.7 11:50:37 10° SSW 11:53:43 85° SE 11:56:48 10° NE
COSMOS 2406 3.8 11:48:40 10° N 11:53:55 37° ENE 11:58:23 14° SE
STARLINK-1344 2.7 11:50:56 10° SW 11:54:01 86° ESE 11:57:07 10° NE
STARLINK-1378 3.7 11:50:24 10° SSW 11:54:17 47° SE 11:58:09 10° NE
Cosmos 2082 Rocket 4.2 11:53:56 10° ENE 11:54:20 10° ENE 11:54:44 10° ENE
STARLINK-1343 2.7 11:51:19 10° SW 11:54:24 87° SE 11:57:30 10° NE
STARLINK-1346 2.7 11:51:36 10° SW 11:54:40 88° SE 11:57:45 10° NE
Aureole 2 Rocket 2.6 11:51:36 10° SSW 11:54:49 65° WNW 11:57:53 10° N
Cosmos 1110 Rocket 4.2 11:49:58 10° S 11:54:56 46° E 11:59:51 10° NNE
STARLINK-1085 4.2 11:51:06 10° NNW 11:55:00 41° NE 11:57:51 17° ESE
STARLINK-1328 2.8 11:52:02 10° SW 11:55:08 90° SE 11:58:14 10° NE
STARLINK-1354 2.8 11:52:18 10° SW 11:55:24 89° NW 11:58:29 10° NE
STARLINK-1347 2.8 11:52:36 10° SW 11:55:41 88° WNW 11:58:47 10° NE
STARLINK-1357 2.8 11:53:03 10° SW 11:56:08 87° WNW 11:59:14 10° NE
STARLINK-1335 2.8 11:53:18 10° SW 11:56:24 86° NW 11:59:30 10° NE
STARLINK-1327 2.8 11:53:40 10° SW 11:56:45 85° NW 11:59:51 10° NE
